Year,Month,Day,Hour,Minute,Value (Times are PST for windgust in km/hr)
2017,01,11,00,00,41.80
2017,01,11,00,01,29.00
2017,01,11,00,02,53.10
2017,01,11,00,03,41.80
2017,01,11,00,04,46.70
2017,01,11,00,05,32.20
2017,01,11,00,06,45.10
2017,01,11,00,07,45.10
2017,01,11,00,08,41.80
2017,01,11,00,09,37.00
2017,01,11,00,10,40.20
2017,01,11,00,11,38.60
2017,01,11,00,12,53.10
2017,01,11,00,13,35.40
2017,01,11,00,14,45.10
2017,01,11,00,15,40.20
2017,01,11,00,16,37.00
2017,01,11,00,17,41.80
2017,01,11,00,18,32.20
2017,01,11,00,19,53.10
2017,01,11,00,20,43.50
2017,01,11,00,21,46.70
2017,01,11,00,22,41.80
2017,01,11,00,23,33.80
2017,01,11,00,24,43.50
2017,01,11,00,25,37.00
2017,01,11,00,26,46.70
2017,01,11,00,27,30.60
2017,01,11,00,28,41.80
2017,01,11,00,29,38.60
2017,01,11,00,30,25.70
2017,01,11,00,31,46.70
2017,01,11,00,32,29.00
2017,01,11,00,33,32.20
2017,01,11,00,34,29.00
2017,01,11,00,35,32.20
2017,01,11,00,36,35.40
2017,01,11,00,37,43.50
2017,01,11,00,38,45.10
2017,01,11,00,39,30.60
2017,01,11,00,40,29.00
2017,01,11,00,41,35.40
2017,01,11,00,42,46.70
2017,01,11,00,43,37.00
2017,01,11,00,44,43.50
2017,01,11,00,45,27.40
2017,01,11,00,46,46.70
2017,01,11,00,47,30.60
2017,01,11,00,48,37.00
2017,01,11,00,49,27.40
2017,01,11,00,50,29.00
2017,01,11,00,51,38.60
2017,01,11,00,52,35.40
2017,01,11,00,53,27.40
2017,01,11,00,54,46.70
2017,01,11,00,55,43.50
2017,01,11,00,56,27.40
2017,01,11,00,57,41.80
2017,01,11,00,58,48.30
2017,01,11,00,59,24.20
2017,01,11,01,00,29.00
2017,01,11,01,01,38.60
2017,01,11,01,02,29.00
2017,01,11,01,03,40.20
2017,01,11,01,04,40.20
2017,01,11,01,05,29.00
2017,01,11,01,06,32.20
2017,01,11,01,07,32.20
2017,01,11,01,08,29.00
2017,01,11,01,09,45.10
2017,01,11,01,10,40.20
2017,01,11,01,11,27.40
2017,01,11,01,12,32.20
2017,01,11,01,13,38.60
2017,01,11,01,14,37.00
2017,01,11,01,15,33.80
2017,01,11,01,16,40.20
2017,01,11,01,17,48.30
2017,01,11,01,18,40.20
2017,01,11,01,19,27.40
2017,01,11,01,20,35.40
2017,01,11,01,21,35.40
2017,01,11,01,22,35.40
2017,01,11,01,23,32.20
2017,01,11,01,24,32.20
2017,01,11,01,25,30.60
2017,01,11,01,26,43.50
2017,01,11,01,27,32.20
2017,01,11,01,28,24.20
2017,01,11,01,29,29.00
2017,01,11,01,30,33.80
2017,01,11,01,31,33.80
2017,01,11,01,32,25.70
2017,01,11,01,33,41.80
2017,01,11,01,34,40.20
2017,01,11,01,35,40.20
2017,01,11,01,36,40.20
2017,01,11,01,37,41.80
2017,01,11,01,38,29.00
2017,01,11,01,39,29.00
2017,01,11,01,40,29.00
2017,01,11,01,41,33.80
2017,01,11,01,42,32.20
2017,01,11,01,43,27.40
2017,01,11,01,44,29.00
2017,01,11,01,45,37.00
2017,01,11,01,46,29.00
2017,01,11,01,47,22.50
2017,01,11,01,48,25.70
2017,01,11,01,49,29.00
2017,01,11,01,50,38.60
2017,01,11,01,51,35.40
2017,01,11,01,52,24.20
2017,01,11,01,53,30.60
2017,01,11,01,54,27.40
2017,01,11,01,55,33.80
2017,01,11,01,56,35.40
2017,01,11,01,57,35.40
2017,01,11,01,58,32.20
2017,01,11,01,59,38.60
2017,01,11,02,00,33.80
2017,01,11,02,01,22.50
2017,01,11,02,02,33.80
2017,01,11,02,03,27.40
2017,01,11,02,04,38.60
2017,01,11,02,05,33.80
2017,01,11,02,06,30.60
2017,01,11,02,07,29.00
2017,01,11,02,08,45.10
2017,01,11,02,09,40.20
2017,01,11,02,10,41.80
2017,01,11,02,11,33.80
2017,01,11,02,12,30.60
2017,01,11,02,13,30.60
2017,01,11,02,14,33.80
2017,01,11,02,15,37.00
2017,01,11,02,16,37.00
2017,01,11,02,17,37.00
2017,01,11,02,18,30.60
2017,01,11,02,19,40.20
2017,01,11,02,20,32.20
2017,01,11,02,21,35.40
2017,01,11,02,22,45.10
2017,01,11,02,23,43.50
2017,01,11,02,24,29.00
2017,01,11,02,25,40.20
2017,01,11,02,26,37.00
2017,01,11,02,27,35.40
2017,01,11,02,28,35.40
2017,01,11,02,29,46.70
2017,01,11,02,30,46.70
2017,01,11,02,31,33.80
2017,01,11,02,32,27.40
2017,01,11,02,33,38.60
2017,01,11,02,34,30.60
2017,01,11,02,35,38.60
2017,01,11,02,36,43.50
2017,01,11,02,37,53.10
2017,01,11,02,38,37.00
2017,01,11,02,39,24.20
2017,01,11,02,40,43.50
2017,01,11,02,41,38.60
2017,01,11,02,42,29.00
2017,01,11,02,43,30.60
2017,01,11,02,44,37.00
2017,01,11,02,45,30.60
2017,01,11,02,46,40.20
2017,01,11,02,47,33.80
2017,01,11,02,48,43.50
2017,01,11,02,49,43.50
2017,01,11,02,50,25.70
2017,01,11,02,51,37.00
2017,01,11,02,52,33.80
2017,01,11,02,53,35.40
2017,01,11,02,54,43.50
2017,01,11,02,55,40.20
2017,01,11,02,56,35.40
2017,01,11,02,57,46.70
2017,01,11,02,58,37.00
2017,01,11,02,59,48.30
2017,01,11,03,00,37.00
2017,01,11,03,01,19.30
2017,01,11,03,02,30.60
2017,01,11,03,03,38.60
2017,01,11,03,04,41.80
2017,01,11,03,05,46.70
2017,01,11,03,06,27.40
2017,01,11,03,07,40.20
2017,01,11,03,08,41.80
2017,01,11,03,09,38.60
2017,01,11,03,10,41.80
2017,01,11,03,11,40.20
2017,01,11,03,12,35.40
2017,01,11,03,13,62.70
2017,01,11,03,14,49.90
2017,01,11,03,15,41.80
2017,01,11,03,16,32.20
2017,01,11,03,17,37.00
2017,01,11,03,18,30.60
2017,01,11,03,19,30.60
2017,01,11,03,20,37.00
2017,01,11,03,21,37.00
2017,01,11,03,22,40.20
2017,01,11,03,23,40.20
2017,01,11,03,24,30.60
2017,01,11,03,25,43.50
2017,01,11,03,26,40.20
2017,01,11,03,27,38.60
2017,01,11,03,28,33.80
2017,01,11,03,29,32.20
2017,01,11,03,30,35.40
2017,01,11,03,31,53.10
2017,01,11,03,32,38.60
2017,01,11,03,33,33.80
2017,01,11,03,34,40.20
2017,01,11,03,35,37.00
2017,01,11,03,36,30.60
2017,01,11,03,37,35.40
2017,01,11,03,38,54.70
2017,01,11,03,39,30.60
2017,01,11,03,40,32.20
2017,01,11,03,41,37.00
2017,01,11,03,42,38.60
2017,01,11,03,43,46.70
2017,01,11,03,44,56.30
2017,01,11,03,45,51.50
2017,01,11,03,46,38.60
2017,01,11,03,47,43.50
2017,01,11,03,48,43.50
2017,01,11,03,49,40.20
2017,01,11,03,50,45.10
2017,01,11,03,51,46.70
2017,01,11,03,52,41.80
2017,01,11,03,53,35.40
2017,01,11,03,54,33.80
2017,01,11,03,55,56.30
2017,01,11,03,56,37.00
2017,01,11,03,57,37.00
2017,01,11,03,58,40.20
2017,01,11,03,59,49.90
2017,01,11,04,00,41.80
2017,01,11,04,01,40.20
2017,01,11,04,02,38.60
2017,01,11,04,03,59.50
2017,01,11,04,04,41.80
2017,01,11,04,05,46.70
2017,01,11,04,06,38.60
2017,01,11,04,07,51.50
2017,01,11,04,08,45.10
2017,01,11,04,09,49.90
2017,01,11,04,10,41.80
2017,01,11,04,11,53.10
2017,01,11,04,12,38.60
2017,01,11,04,13,32.20
2017,01,11,04,14,27.40
2017,01,11,04,15,33.80
2017,01,11,04,16,53.10
2017,01,11,04,17,48.30
2017,01,11,04,18,48.30
2017,01,11,04,19,45.10
2017,01,11,04,20,37.00
2017,01,11,04,21,45.10
2017,01,11,04,22,51.50
2017,01,11,04,23,48.30
2017,01,11,04,24,35.40
2017,01,11,04,25,35.40
2017,01,11,04,26,35.40
2017,01,11,04,27,32.20
2017,01,11,04,28,32.20
2017,01,11,04,29,37.00
2017,01,11,04,30,29.00
2017,01,11,04,31,29.00
2017,01,11,04,32,29.00
2017,01,11,04,33,25.70
2017,01,11,04,34,27.40
2017,01,11,04,35,29.00
2017,01,11,04,36,32.20
2017,01,11,04,37,32.20
2017,01,11,04,38,33.80
2017,01,11,04,39,35.40
2017,01,11,04,40,38.60
2017,01,11,04,41,27.40
2017,01,11,04,42,43.50
2017,01,11,04,43,43.50
2017,01,11,04,44,33.80
2017,01,11,04,45,33.80
2017,01,11,04,46,37.00
2017,01,11,04,47,22.50
2017,01,11,04,48,54.70
2017,01,11,04,49,33.80
2017,01,11,04,50,46.70
2017,01,11,04,51,32.20
2017,01,11,04,52,33.80
2017,01,11,04,53,27.40
2017,01,11,04,54,35.40
2017,01,11,04,55,32.20
2017,01,11,04,56,30.60
2017,01,11,04,57,29.00
2017,01,11,04,58,38.60
2017,01,11,04,59,29.00
2017,01,11,05,00,32.20
2017,01,11,05,01,30.60
2017,01,11,05,02,30.60
2017,01,11,05,03,29.00
2017,01,11,05,04,25.70
2017,01,11,05,05,25.70
2017,01,11,05,06,29.00
2017,01,11,05,07,40.20
2017,01,11,05,08,41.80
2017,01,11,05,09,40.20
2017,01,11,05,10,40.20
2017,01,11,05,11,35.40
2017,01,11,05,12,35.40
2017,01,11,05,13,40.20
2017,01,11,05,14,35.40
2017,01,11,05,15,32.20
2017,01,11,05,16,38.60
2017,01,11,05,17,35.40
2017,01,11,05,18,40.20
2017,01,11,05,19,35.40
2017,01,11,05,20,33.80
2017,01,11,05,21,32.20
2017,01,11,05,22,27.40
2017,01,11,05,23,32.20
2017,01,11,05,24,33.80
2017,01,11,05,25,37.00
2017,01,11,05,26,30.60
2017,01,11,05,27,30.60
2017,01,11,05,28,22.50
2017,01,11,05,29,24.20
2017,01,11,05,30,29.00
2017,01,11,05,31,30.60
2017,01,11,05,32,33.80
2017,01,11,05,33,32.20
2017,01,11,05,34,41.80
2017,01,11,05,35,25.70
2017,01,11,05,36,27.40
2017,01,11,05,37,43.50
2017,01,11,05,38,33.80
2017,01,11,05,39,37.00
2017,01,11,05,40,29.00
2017,01,11,05,41,24.20
2017,01,11,05,42,35.40
2017,01,11,05,43,25.70
2017,01,11,05,44,25.70
2017,01,11,05,45,27.40
2017,01,11,05,46,20.90
2017,01,11,05,47,35.40
2017,01,11,05,48,25.70
2017,01,11,05,49,35.40
2017,01,11,05,50,27.40
2017,01,11,05,51,38.60
2017,01,11,05,52,35.40
2017,01,11,05,53,30.60
2017,01,11,05,54,29.00
2017,01,11,05,55,25.70
2017,01,11,05,56,29.00
2017,01,11,05,57,25.70
2017,01,11,05,58,35.40
2017,01,11,05,59,27.40
2017,01,11,06,00,22.50
2017,01,11,06,01,24.20
2017,01,11,06,02,22.50
2017,01,11,06,03,32.20
2017,01,11,06,04,27.40
2017,01,11,06,05,27.40
2017,01,11,06,06,37.00
2017,01,11,06,07,29.00
2017,01,11,06,08,30.60
2017,01,11,06,09,25.70
2017,01,11,06,10,30.60
2017,01,11,06,11,30.60
2017,01,11,06,12,33.80
2017,01,11,06,13,25.70
2017,01,11,06,14,30.60
2017,01,11,06,15,27.40
2017,01,11,06,16,41.80
2017,01,11,06,17,37.00
2017,01,11,06,18,38.60
2017,01,11,06,19,40.20
2017,01,11,06,20,33.80
2017,01,11,06,21,25.70
2017,01,11,06,22,25.70
2017,01,11,06,23,35.40
2017,01,11,06,24,33.80
2017,01,11,06,25,33.80
2017,01,11,06,26,35.40
2017,01,11,06,27,33.80
2017,01,11,06,28,49.90
2017,01,11,06,29,43.50
2017,01,11,06,30,46.70
2017,01,11,06,31,40.20
2017,01,11,06,32,40.20
2017,01,11,06,33,41.80
2017,01,11,06,34,38.60
2017,01,11,06,35,45.10
2017,01,11,06,36,33.80
2017,01,11,06,37,32.20
2017,01,11,06,38,30.60
2017,01,11,06,39,29.00
2017,01,11,06,40,29.00
2017,01,11,06,41,32.20
2017,01,11,06,42,32.20
2017,01,11,06,43,30.60
2017,01,11,06,44,35.40
2017,01,11,06,45,30.60
2017,01,11,06,46,35.40
2017,01,11,06,47,30.60
2017,01,11,06,48,25.70
2017,01,11,06,49,38.60
2017,01,11,06,50,27.40
2017,01,11,06,51,45.10
2017,01,11,06,52,32.20
2017,01,11,06,53,32.20
2017,01,11,06,54,30.60
2017,01,11,06,55,29.00
2017,01,11,06,56,30.60
2017,01,11,06,57,30.60
2017,01,11,06,58,19.30
2017,01,11,06,59,27.40
2017,01,11,07,00,35.40
2017,01,11,07,01,45.10
2017,01,11,07,02,33.80
2017,01,11,07,03,40.20
2017,01,11,07,04,24.20
2017,01,11,07,05,25.70
2017,01,11,07,06,25.70
2017,01,11,07,07,29.00
2017,01,11,07,08,29.00
2017,01,11,07,09,40.20
2017,01,11,07,10,33.80
2017,01,11,07,11,29.00
2017,01,11,07,12,35.40
2017,01,11,07,13,24.20
2017,01,11,07,14,27.40
2017,01,11,07,15,22.50
2017,01,11,07,16,38.60
2017,01,11,07,17,20.90
2017,01,11,07,18,25.70
2017,01,11,07,19,27.40
2017,01,11,07,20,22.50
2017,01,11,07,21,30.60
2017,01,11,07,22,33.80
2017,01,11,07,23,30.60
2017,01,11,07,24,25.70
2017,01,11,07,25,37.00
2017,01,11,07,26,27.40
2017,01,11,07,27,29.00
2017,01,11,07,28,27.40
2017,01,11,07,29,33.80
2017,01,11,07,30,29.00
2017,01,11,07,31,33.80
2017,01,11,07,32,29.00
2017,01,11,07,33,29.00
2017,01,11,07,34,29.00
2017,01,11,07,35,25.70
2017,01,11,07,36,20.90
2017,01,11,07,37,27.40
2017,01,11,07,38,35.40
2017,01,11,07,39,37.00
2017,01,11,07,40,30.60
2017,01,11,07,41,33.80
2017,01,11,07,42,35.40
2017,01,11,07,43,37.00
2017,01,11,07,44,30.60
2017,01,11,07,45,29.00
2017,01,11,07,46,27.40
2017,01,11,07,47,30.60
2017,01,11,07,48,35.40
2017,01,11,07,49,38.60
2017,01,11,07,50,24.20
2017,01,11,07,51,33.80
2017,01,11,07,52,27.40
2017,01,11,07,53,20.90
2017,01,11,07,54,30.60
2017,01,11,07,55,27.40
2017,01,11,07,56,30.60
2017,01,11,07,57,33.80
2017,01,11,07,58,32.20
2017,01,11,07,59,32.20
2017,01,11,08,00,29.00
2017,01,11,08,01,45.10
2017,01,11,08,02,48.30
2017,01,11,08,03,48.30
2017,01,11,08,04,38.60
2017,01,11,08,05,33.80
2017,01,11,08,06,35.40
2017,01,11,08,07,24.20
2017,01,11,08,08,35.40
2017,01,11,08,09,35.40
2017,01,11,08,10,29.00
2017,01,11,08,11,30.60
2017,01,11,08,12,25.70
2017,01,11,08,13,35.40
2017,01,11,08,14,30.60
2017,01,11,08,15,40.20
2017,01,11,08,16,38.60
2017,01,11,08,17,35.40
2017,01,11,08,18,43.50
2017,01,11,08,19,38.60
2017,01,11,08,20,43.50
2017,01,11,08,21,33.80
2017,01,11,08,22,30.60
2017,01,11,08,23,25.70
2017,01,11,08,24,30.60
2017,01,11,08,25,24.20
2017,01,11,08,26,37.00
2017,01,11,08,27,33.80
2017,01,11,08,28,25.70
2017,01,11,08,29,30.60
2017,01,11,08,30,32.20
2017,01,11,08,31,43.50
2017,01,11,08,32,35.40
2017,01,11,08,33,35.40
2017,01,11,08,34,41.80
2017,01,11,08,35,33.80
2017,01,11,08,36,32.20
2017,01,11,08,37,40.20
2017,01,11,08,38,29.00
2017,01,11,08,39,35.40
2017,01,11,08,40,37.00
2017,01,11,08,41,29.00
2017,01,11,08,42,35.40
2017,01,11,08,43,35.40
2017,01,11,08,44,40.20
2017,01,11,08,45,41.80
2017,01,11,08,46,37.00
2017,01,11,08,47,35.40
2017,01,11,08,48,29.00
2017,01,11,08,49,40.20
2017,01,11,08,50,35.40
2017,01,11,08,51,29.00
2017,01,11,08,52,35.40
2017,01,11,08,53,37.00
2017,01,11,08,54,53.10
2017,01,11,08,55,30.60
2017,01,11,08,56,46.70
2017,01,11,08,57,32.20
2017,01,11,08,58,29.00
2017,01,11,08,59,38.60
2017,01,11,09,00,20.90
2017,01,11,09,01,29.00
2017,01,11,09,02,33.80
2017,01,11,09,03,38.60
2017,01,11,09,04,32.20
2017,01,11,09,05,30.60
2017,01,11,09,06,29.00
2017,01,11,09,07,29.00
2017,01,11,09,08,29.00
2017,01,11,09,09,27.40
2017,01,11,09,10,22.50
2017,01,11,09,11,19.30
2017,01,11,09,12,37.00
2017,01,11,09,13,40.20
2017,01,11,09,14,24.20
2017,01,11,09,15,30.60
2017,01,11,09,16,35.40
2017,01,11,09,17,30.60
2017,01,11,09,18,30.60
2017,01,11,09,19,40.20
2017,01,11,09,20,33.80
2017,01,11,09,21,35.40
2017,01,11,09,22,29.00
2017,01,11,09,23,27.40
2017,01,11,09,24,19.30
2017,01,11,09,25,20.90
2017,01,11,09,26,27.40
2017,01,11,09,27,30.60
2017,01,11,09,28,25.70
2017,01,11,09,29,32.20
2017,01,11,09,30,33.80
2017,01,11,09,31,30.60
2017,01,11,09,32,33.80
2017,01,11,09,33,33.80
2017,01,11,09,34,33.80
2017,01,11,09,35,29.00
2017,01,11,09,36,29.00
2017,01,11,09,37,25.70
2017,01,11,09,38,22.50
2017,01,11,09,39,27.40
2017,01,11,09,40,27.40
2017,01,11,09,41,20.90
2017,01,11,09,42,19.30
2017,01,11,09,43,29.00
2017,01,11,09,44,27.40
2017,01,11,09,45,20.90
2017,01,11,09,46,27.40
2017,01,11,09,47,33.80
2017,01,11,09,48,29.00
2017,01,11,09,49,30.60
2017,01,11,09,50,35.40
2017,01,11,09,51,35.40
2017,01,11,09,52,25.70
2017,01,11,09,53,24.20
2017,01,11,09,54,19.30
2017,01,11,09,55,27.40
2017,01,11,09,56,24.20
2017,01,11,09,57,27.40
2017,01,11,09,58,27.40
2017,01,11,09,59,25.70
2017,01,11,10,00,17.70
2017,01,11,10,01,24.20
2017,01,11,10,02,27.40
2017,01,11,10,03,22.50
2017,01,11,10,04,19.30
2017,01,11,10,05,17.70
2017,01,11,10,06,20.90
2017,01,11,10,07,19.30
2017,01,11,10,08,22.50
2017,01,11,10,09,20.90
2017,01,11,10,10,40.20
2017,01,11,10,11,24.20
2017,01,11,10,12,22.50
2017,01,11,10,13,37.00
2017,01,11,10,14,38.60
2017,01,11,10,15,37.00
2017,01,11,10,16,32.20
2017,01,11,10,17,17.70
2017,01,11,10,18,22.50
2017,01,11,10,19,19.30
2017,01,11,10,20,35.40
2017,01,11,10,21,27.40
2017,01,11,10,22,30.60
2017,01,11,10,23,29.00
2017,01,11,10,24,30.60
2017,01,11,10,25,16.10
2017,01,11,10,26,20.90
2017,01,11,10,27,19.30
2017,01,11,10,28,30.60
2017,01,11,10,29,25.70
2017,01,11,10,30,27.40
2017,01,11,10,31,22.50
2017,01,11,10,32,27.40
2017,01,11,10,33,29.00
2017,01,11,10,34,25.70
2017,01,11,10,35,27.40
2017,01,11,10,36,35.40
2017,01,11,10,37,29.00
2017,01,11,10,38,33.80
2017,01,11,10,39,30.60
2017,01,11,10,40,35.40
2017,01,11,10,41,25.70
2017,01,11,10,42,35.40
2017,01,11,10,43,30.60
2017,01,11,10,44,38.60
2017,01,11,10,45,35.40
2017,01,11,10,46,32.20
2017,01,11,10,47,24.20
2017,01,11,10,48,27.40
2017,01,11,10,49,30.60
2017,01,11,10,50,40.20
2017,01,11,10,51,29.00
2017,01,11,10,52,16.10
2017,01,11,10,53,20.90
2017,01,11,10,54,29.00
2017,01,11,10,55,35.40
2017,01,11,10,56,32.20
2017,01,11,10,57,38.60
2017,01,11,10,58,32.20
2017,01,11,10,59,30.60
2017,01,11,11,00,27.40
2017,01,11,11,01,17.70
2017,01,11,11,02,27.40
2017,01,11,11,03,25.70
2017,01,11,11,04,29.00
2017,01,11,11,05,27.40
2017,01,11,11,06,33.80
2017,01,11,11,07,29.00
2017,01,11,11,08,19.30
2017,01,11,11,09,22.50
2017,01,11,11,10,25.70
2017,01,11,11,11,29.00
2017,01,11,11,12,30.60
2017,01,11,11,13,24.20
2017,01,11,11,14,32.20
2017,01,11,11,15,24.20
2017,01,11,11,16,30.60
2017,01,11,11,17,37.00
2017,01,11,11,18,22.50
2017,01,11,11,19,27.40
2017,01,11,11,20,25.70
2017,01,11,11,21,19.30
2017,01,11,11,22,24.20
2017,01,11,11,23,19.30
2017,01,11,11,24,20.90
2017,01,11,11,25,25.70
2017,01,11,11,26,29.00
2017,01,11,11,27,29.00
2017,01,11,11,28,32.20
2017,01,11,11,29,25.70
2017,01,11,11,30,22.50
2017,01,11,11,31,16.10
2017,01,11,11,32,19.30
2017,01,11,11,33,29.00
2017,01,11,11,34,30.60
2017,01,11,11,35,25.70
2017,01,11,11,36,27.40
2017,01,11,11,37,25.70
2017,01,11,11,38,20.90
2017,01,11,11,39,17.70
2017,01,11,11,40,20.90
2017,01,11,11,41,16.10
2017,01,11,11,42,12.90
2017,01,11,11,43,29.00
2017,01,11,11,44,25.70
2017,01,11,11,45,20.90
2017,01,11,11,46,24.20
2017,01,11,11,47,25.70
2017,01,11,11,48,27.40
2017,01,11,11,49,20.90
2017,01,11,11,50,20.90
2017,01,11,11,51,30.60
2017,01,11,11,52,20.90
2017,01,11,11,53,17.70
2017,01,11,11,54,20.90
2017,01,11,11,55,19.30
2017,01,11,11,56,24.20
2017,01,11,11,57,22.50
2017,01,11,11,58,22.50
2017,01,11,11,59,20.90
2017,01,11,12,00,16.10
2017,01,11,12,01,17.70
2017,01,11,12,02,20.90
2017,01,11,12,03,17.70
2017,01,11,12,04,20.90
2017,01,11,12,05,16.10
2017,01,11,12,06,20.90
2017,01,11,12,07,22.50
2017,01,11,12,08,22.50
2017,01,11,12,09,16.10
2017,01,11,12,10,16.10
2017,01,11,12,11,22.50
2017,01,11,12,12,19.30
2017,01,11,12,13,24.20
2017,01,11,12,14,19.30
2017,01,11,12,15,25.70
2017,01,11,12,16,22.50
2017,01,11,12,17,24.20
2017,01,11,12,18,27.40
2017,01,11,12,19,16.10
2017,01,11,12,20,24.20
2017,01,11,12,21,24.20
2017,01,11,12,22,22.50
2017,01,11,12,23,19.30
2017,01,11,12,24,24.20
2017,01,11,12,25,27.40
2017,01,11,12,26,20.90
2017,01,11,12,27,19.30
2017,01,11,12,28,25.70
2017,01,11,12,29,20.90
2017,01,11,12,30,14.50
2017,01,11,12,31,20.90
2017,01,11,12,32,17.70
2017,01,11,12,33,14.50
2017,01,11,12,34,19.30
2017,01,11,12,35,25.70
2017,01,11,12,36,35.40
2017,01,11,12,37,25.70
2017,01,11,12,38,17.70
2017,01,11,12,39,16.10
2017,01,11,12,40,32.20
2017,01,11,12,41,27.40
2017,01,11,12,42,16.10
2017,01,11,12,43,19.30
2017,01,11,12,44,17.70
2017,01,11,12,45,17.70
2017,01,11,12,46,17.70
2017,01,11,12,47,14.50
2017,01,11,12,48,19.30
2017,01,11,12,49,16.10
2017,01,11,12,50,14.50
2017,01,11,12,51,12.90
2017,01,11,12,52,12.90
2017,01,11,12,53,16.10
2017,01,11,12,54,17.70
2017,01,11,12,55,19.30
2017,01,11,12,56,22.50
2017,01,11,12,57,24.20
2017,01,11,12,58,14.50
2017,01,11,12,59,9.60
2017,01,11,13,00,8.10
2017,01,11,13,01,17.70
2017,01,11,13,02,16.10
2017,01,11,13,03,19.30
2017,01,11,13,04,20.90
2017,01,11,13,05,20.90
2017,01,11,13,06,25.70
2017,01,11,13,07,20.90
2017,01,11,13,08,20.90
2017,01,11,13,09,17.70
2017,01,11,13,10,24.20
2017,01,11,13,11,12.90
2017,01,11,13,12,16.10
2017,01,11,13,13,20.90
2017,01,11,13,14,17.70
2017,01,11,13,15,25.70
2017,01,11,13,16,17.70
2017,01,11,13,17,14.50
2017,01,11,13,18,17.70
2017,01,11,13,19,16.10
2017,01,11,13,20,16.10
2017,01,11,13,21,22.50
2017,01,11,13,22,20.90
2017,01,11,13,23,24.20
2017,01,11,13,24,9.60
2017,01,11,13,25,16.10
2017,01,11,13,26,19.30
2017,01,11,13,27,22.50
2017,01,11,13,28,19.30
2017,01,11,13,29,20.90
2017,01,11,13,30,9.60
2017,01,11,13,31,25.70
2017,01,11,13,32,11.30
2017,01,11,13,33,14.50
2017,01,11,13,34,25.70
2017,01,11,13,35,9.60
2017,01,11,13,36,8.10
2017,01,11,13,37,9.60
2017,01,11,13,38,14.50
2017,01,11,13,39,16.10
2017,01,11,13,40,14.50
2017,01,11,13,41,20.90
2017,01,11,13,42,24.20
2017,01,11,13,43,19.30
2017,01,11,13,44,22.50
2017,01,11,13,45,19.30
2017,01,11,13,46,17.70
2017,01,11,13,47,17.70
2017,01,11,13,48,20.90
2017,01,11,13,49,24.20
2017,01,11,13,50,14.50
2017,01,11,13,51,17.70
2017,01,11,13,52,16.10
2017,01,11,13,53,20.90
2017,01,11,13,54,9.60
2017,01,11,13,55,17.70
2017,01,11,13,56,16.10
2017,01,11,13,57,11.30
2017,01,11,13,58,22.50
2017,01,11,13,59,11.30
2017,01,11,14,00,17.70
2017,01,11,14,01,20.90
2017,01,11,14,02,16.10
2017,01,11,14,03,17.70
2017,01,11,14,04,16.10
2017,01,11,14,05,19.30
2017,01,11,14,06,24.20
2017,01,11,14,07,16.10
2017,01,11,14,08,11.30
2017,01,11,14,09,11.30
2017,01,11,14,10,17.70
2017,01,11,14,11,14.50
2017,01,11,14,12,19.30
2017,01,11,14,13,16.10
2017,01,11,14,14,19.30
2017,01,11,14,15,19.30
2017,01,11,14,16,17.70
2017,01,11,14,17,16.10
2017,01,11,14,18,17.70
2017,01,11,14,19,11.30
2017,01,11,14,20,12.90
2017,01,11,14,21,19.30
2017,01,11,14,22,14.50
2017,01,11,14,23,16.10
2017,01,11,14,24,12.90
2017,01,11,14,25,9.60
2017,01,11,14,26,14.50
2017,01,11,14,27,20.90
2017,01,11,14,28,20.90
2017,01,11,14,29,11.30
2017,01,11,14,30,16.10
2017,01,11,14,31,20.90
2017,01,11,14,32,19.30
2017,01,11,14,33,17.70
2017,01,11,14,34,19.30
2017,01,11,14,35,16.10
2017,01,11,14,36,20.90
2017,01,11,14,37,16.10
2017,01,11,14,38,16.10
2017,01,11,14,39,11.30
2017,01,11,14,40,14.50
2017,01,11,14,41,14.50
2017,01,11,14,42,22.50
2017,01,11,14,43,17.70
2017,01,11,14,44,12.90
2017,01,11,14,45,17.70
2017,01,11,14,46,17.70
2017,01,11,14,47,17.70
2017,01,11,14,48,14.50
2017,01,11,14,49,12.90
2017,01,11,14,50,16.10
2017,01,11,14,51,19.30
2017,01,11,14,52,12.90
2017,01,11,14,53,11.30
2017,01,11,14,54,16.10
2017,01,11,14,55,17.70
2017,01,11,14,56,14.50
2017,01,11,14,57,19.30
2017,01,11,14,58,14.50
2017,01,11,14,59,17.70
2017,01,11,15,00,24.20
2017,01,11,15,01,16.10
2017,01,11,15,02,16.10
2017,01,11,15,03,11.30
2017,01,11,15,04,19.30
2017,01,11,15,05,20.90
2017,01,11,15,06,9.60
2017,01,11,15,07,14.50
2017,01,11,15,08,11.30
2017,01,11,15,09,16.10
2017,01,11,15,10,14.50
2017,01,11,15,11,22.50
2017,01,11,15,12,20.90
2017,01,11,15,13,20.90
2017,01,11,15,14,24.20
2017,01,11,15,15,17.70
2017,01,11,15,16,16.10
2017,01,11,15,17,11.30
2017,01,11,15,18,17.70
2017,01,11,15,19,19.30
2017,01,11,15,20,20.90
2017,01,11,15,21,24.20
2017,01,11,15,22,19.30
2017,01,11,15,23,19.30
2017,01,11,15,24,32.20
2017,01,11,15,25,25.70
2017,01,11,15,26,19.30
2017,01,11,15,27,19.30
2017,01,11,15,28,20.90
2017,01,11,15,29,17.70
2017,01,11,15,30,20.90
2017,01,11,15,31,19.30
2017,01,11,15,32,22.50
2017,01,11,15,33,11.30
2017,01,11,15,34,32.20
2017,01,11,15,35,17.70
2017,01,11,15,36,22.50
2017,01,11,15,37,20.90
2017,01,11,15,38,16.10
2017,01,11,15,39,22.50
2017,01,11,15,40,19.30
2017,01,11,15,41,19.30
2017,01,11,15,42,16.10
2017,01,11,15,43,9.60
2017,01,11,15,44,8.10
2017,01,11,15,45,20.90
2017,01,11,15,46,16.10
2017,01,11,15,47,16.10
2017,01,11,15,48,19.30
2017,01,11,15,49,19.30
2017,01,11,15,50,20.90
2017,01,11,15,51,20.90
2017,01,11,15,52,11.30
2017,01,11,15,53,20.90
2017,01,11,15,54,20.90
2017,01,11,15,55,22.50
2017,01,11,15,56,19.30
2017,01,11,15,57,22.50
2017,01,11,15,58,19.30
2017,01,11,15,59,11.30
2017,01,11,16,00,14.50
2017,01,11,16,01,16.10
2017,01,11,16,02,16.10
2017,01,11,16,03,20.90
2017,01,11,16,04,14.50
2017,01,11,16,05,20.90
2017,01,11,16,06,14.50
2017,01,11,16,07,17.70
2017,01,11,16,08,14.50
2017,01,11,16,09,20.90
2017,01,11,16,10,19.30
2017,01,11,16,11,19.30
2017,01,11,16,12,14.50
2017,01,11,16,13,11.30
2017,01,11,16,14,8.10
2017,01,11,16,15,11.30
2017,01,11,16,16,16.10
2017,01,11,16,17,24.20
2017,01,11,16,18,17.70
2017,01,11,16,19,17.70
2017,01,11,16,20,17.70
2017,01,11,16,21,17.70
2017,01,11,16,22,17.70
2017,01,11,16,23,14.50
2017,01,11,16,24,19.30
2017,01,11,16,25,14.50
2017,01,11,16,26,16.10
2017,01,11,16,27,19.30
2017,01,11,16,28,20.90
2017,01,11,16,29,16.10
2017,01,11,16,30,17.70
2017,01,11,16,31,17.70
2017,01,11,16,32,17.70
2017,01,11,16,33,14.50
2017,01,11,16,34,20.90
2017,01,11,16,35,14.50
2017,01,11,16,36,11.30
2017,01,11,16,37,17.70
2017,01,11,16,38,17.70
2017,01,11,16,39,14.50
2017,01,11,16,40,20.90
2017,01,11,16,41,17.70
2017,01,11,16,42,17.70
2017,01,11,16,43,16.10
2017,01,11,16,44,19.30
2017,01,11,16,45,17.70
2017,01,11,16,46,17.70
2017,01,11,16,47,19.30
2017,01,11,16,48,12.90
2017,01,11,16,49,16.10
2017,01,11,16,50,17.70
2017,01,11,16,51,14.50
2017,01,11,16,52,14.50
2017,01,11,16,53,11.30
2017,01,11,16,54,19.30
2017,01,11,16,55,14.50
2017,01,11,16,56,11.30
2017,01,11,16,57,11.30
2017,01,11,16,58,17.70
2017,01,11,16,59,9.60
2017,01,11,17,00,16.10
2017,01,11,17,01,9.60
2017,01,11,17,02,6.40
2017,01,11,17,03,8.10
2017,01,11,17,04,8.10
2017,01,11,17,05,9.60
2017,01,11,17,06,9.60
2017,01,11,17,07,8.10
2017,01,11,17,08,9.60
2017,01,11,17,09,9.60
2017,01,11,17,10,16.10
2017,01,11,17,11,8.10
2017,01,11,17,12,8.10
2017,01,11,17,13,9.60
2017,01,11,17,14,9.60
2017,01,11,17,15,6.40
2017,01,11,17,16,17.70
2017,01,11,17,17,17.70
2017,01,11,17,18,17.70
2017,01,11,17,19,19.30
2017,01,11,17,20,29.00